Location: Krakow
(50.0830°N, 19.9170°E)
Time: 07:40:59
(UTC+02:00)

Tiros 1 despin weight - Pass Details

Date: 16 March 2026
Orbit: 555 x 592 km, 48.2° (Epoch: 18 April)

Event Time Altitude Azimuth Distance (km) Brightness Sun altitude
Rises 10:50:15 0° 276° (W) 2,785 ? 36.7°
Reaches altitude 10° 10:53:43 10° 247° (WSW) 1,872 ? 36.9°
Maximum altitude 10:55:32 13° 221° (SW) 1,704 ? 37.0°
Drops below altitude 10° 10:57:21 10° 196° (SSW) 1,857 ? 37.1°
Sets 11:00:46 0° 167° (SSE) 2,739 ? 37.2°
